IRNSS-1I (43286 NORAD) Tracking and Keplerian Element Data

This shows tracking and keplerian element data for the satellite.

Feedback or suggestion? Click here.




ElementValue
Catalog43286
NameIRNSS-1I
Epoch Orbit227
Epoch Day317.0336687
Epoch Year2018
RAAN119.3596
Inclination28.8771
Eccentricity0.0020476
Argument of Perigee177.5961
Mean Anonmoly182.4038
Mean Motion1.00276972
Decay Rate1.26E-06
L11 43286U 18035A 18317.03366870 .00000126 00000-0 00000+0 0 9991
L22 43286 28.8771 119.3596 0020476 177.5961 182.4038 1.00276972 2278

Live tracking and technical data element details for IRNSS-1I (NORAD 43286). IRNSS-1I can be tracked NOW for your location showing map with azimuth and elevation plus other details from your city location.

Track the satellite on the map from your city or location and see movement details for azimuth, elevation, latitude, longitude, range, height, and movement on the map or in text.







IsCatalogInMostPopularTable: catalog: 43286, numindb: 187
Update: records affected: 1



GetName: 43286 IRNSS-1I

Hit Count: updated at: Wed, 14 Nov 2018 15:47:48 GMT